{"data":{"norad_id":58361,"intl_designator":"2023-177L","name":"STARLINK-30885","alt_names":[],"object_type":"PAYLOAD","status":"ACTIVE","operator":null,"country":"US","launch_date":"2023-11-18","launch_site_code":"AFETR","launch_vehicle":null,"mission":null,"orbit_class":"UNKNOWN","rcs_meters":null,"size_class":null,"mass_kg":null,"dimensions":null,"purposes":["comms"],"wikipedia_slug":null,"has_3d_model":false,"image_url":null,"decayed_at":null,"tle_current":{"epoch":"2026-09-20T21:37:07.463712Z","epoch_age_seconds":109065,"freshness":"FRESH","line1":"1 58361U 23177L   26263.90078083 -.00000586  00000+0 -11772-4 0  9999","line2":"2 58361  43.0053 328.0557 0001543 260.9048  99.1629 15.27581900158099","mean_motion":15.275819,"eccentricity":0.0001543,"inclination_deg":43.0053,"raan_deg":328.0557,"arg_perigee_deg":260.9048,"mean_anomaly_deg":99.1629,"bstar":-1.1772e-5,"rev_number":15809,"period_min":94.266631465063,"perigee_km":481.98472662526,"apogee_km":484.10208689879,"semimajor_km":6861.180406762,"source":"CELESTRAK","updated_at":"2026-09-21T09:00:33.842850Z"}}}